[[[{"header":{"parameterUnit":"kt","parameterCategory":2,"dx":1,"dy":1,"la1":30.253999710083008,"la2":30.299108505249023,"lo1":-89.0895004272461,"lo2":-89.04439544677734,"nx":28,"ny":28,"refTime":"2022-10-19T09:00:00:Z","depth":0,"parameterNumber":1,"parameterNumberName":"U-component_of_WINDS"},"data":[3.6996,3.7102,3.7142,3.728,3.7339,3.744,3.7489,3.7555,3.7619,3.7743,3.7821,3.7872,3.7949,3.8052,3.8138,3.8158,3.819,3.8199,3.822,3.8147,3.8139,3.8132,3.8108,3.8207,3.8207,3.8288,3.8289,3.829,3.6938,3.6997,3.7083,3.7192,3.7265,3.7281,3.7369,3.7428,3.7518,3.7597,3.7677,3.7789,3.7883,3.796,3.8056,3.8105,3.8116,3.8128,3.8122,3.8134,3.8058,3.8033,3.8117,3.8117,3.8117,3.8117,3.8117,3.8117,3.6841,3.6904,3.6993,3.7086,3.7152,3.7225,3.7291,3.7351,3.7435,3.7541,3.7572,3.7674,3.776,3.7896,3.7951,3.8031,3.8024,3.8049,3.8054,3.8058,3.8056,3.7927,3.805,3.805,3.805,3.8049,3.8049,0,3.6781,3.681,3.6895,3.6992,3.7062,3.7141,3.7219,3.7262,3.7335,3.7401,3.75,3.7563,3.7688,3.7784,3.7884,3.7936,3.7955,3.7964,3.798,3.7963,3.7935,3.7947,3.7818,3.7958,3.7958,3.7957,3.7957,3.7957,3.6682,3.6752,3.6865,3.6919,3.6972,3.706,3.7119,3.7179,3.724,3.7345,3.7397,3.7495,3.7576,3.7728,3.7795,3.7889,3.7898,3.7947,3.7912,3.7894,3.7894,3.7887,3.7893,3.795,3.7951,3.7952,3.7952,0,3.6622,3.6687,3.6807,3.6912,3.6941,3.701,3.7099,3.7165,3.7216,3.7313,3.7339,3.7419,3.7514,3.7575,3.7697,3.7726,3.7837,3.7847,3.7807,3.7811,3.7857,3.7851,3.8007,3.8029,3.7932,3.7933,3.7934,0,3.6561,3.6651,3.6741,3.6807,3.6909,3.6966,3.7064,3.7118,3.7194,3.727,3.7304,3.7375,3.7443,3.7522,3.7565,3.7668,3.7692,3.7718,3.7727,3.7712,3.7708,3.7741,3.7734,3.7751,3.775,3.775,3.7749,0,3.6456,3.6611,3.6721,3.6766,3.6886,3.6936,3.6989,3.7074,3.7132,3.7217,3.7255,3.735,3.7401,3.7474,3.7527,3.75,3.7656,3.763,3.7682,3.768,3.7709,3.7706,3.7833,3.7748,3.7748,3.7747,3.7747,0,3.6415,3.6502,3.6652,3.6752,3.679,3.6863,3.696,3.7037,3.7124,3.7155,3.7223,3.7251,3.7349,3.7319,3.7453,3.7403,3.7451,3.7487,3.7492,3.7499,3.7462,3.752,3.764,3.7652,3.7513,3.7511,3.7509,0,3.6275,3.6445,3.6495,3.6637,3.6723,3.6753,3.6836,3.6912,3.6961,3.704,3.7094,3.7184,3.7175,3.7211,3.7271,3.7328,3.7394,3.7322,3.743,3.7434,3.7401,3.7514,3.7513,3.7608,3.7485,3.7488,3.7489,0,3.6174,3.6321,3.6343,3.6395,3.6507,3.658,3.6675,3.6777,3.6826,3.6911,3.6989,3.7119,3.7116,3.7176,3.7209,3.7267,3.7351,3.7256,3.7258,3.7267,3.748,3.7478,3.7494,3.736,3.7363,3.7366,3.747,0,3.6089,3.6183,3.6247,3.6364,3.643,3.6524,3.6588,3.6649,3.6674,3.6723,3.6842,3.6921,3.7024,3.706,3.7085,3.72,3.7189,3.7185,3.7156,3.7231,3.7266,3.7281,3.7097,3.7097,3.7097,3.7096,0,0,3.5937,3.6073,3.6125,3.6219,3.6277,3.6307,3.64,3.6461,3.6583,3.6622,3.6607,3.68,3.6865,3.7002,3.703,3.7074,3.7099,3.707,3.7196,3.7206,3.7217,3.7254,3.7268,3.7096,3.7096,3.7095,3.7095,0,3.5918,3.5986,3.6079,3.6145,3.6243,3.6291,3.6313,3.6415,3.6451,3.6569,3.6589,3.6669,3.6823,3.6886,3.6939,3.7057,3.7066,3.7084,3.7124,3.719,3.7201,3.7211,3.725,3.7263,3.7094,3.7094,3.7095,0,3.5826,3.5903,3.5955,3.6092,3.6156,3.6245,3.6232,3.6327,3.6392,3.6418,3.6534,3.6586,3.6678,3.6801,3.6858,3.6846,3.7032,3.6986,3.699,3.6996,3.7063,3.7076,3.7088,3.6928,3.6927,3.6927,0,0,3.5801,3.5889,3.5988,3.6093,3.6132,3.6204,3.6258,3.6288,3.6371,3.6404,3.647,3.655,3.6639,3.6697,3.6785,3.6911,3.6932,3.6963,3.6971,3.6977,3.6986,3.7054,3.7068,3.6923,3.6923,3.6923,0,0,3.5788,3.5907,3.5918,3.6047,3.6126,3.6229,3.6289,3.6304,3.639,3.6385,3.6439,3.6463,3.6579,3.6629,3.6579,3.6774,3.6745,3.6758,3.6736,3.6747,3.6755,3.6738,3.6573,0,0,0,0,0,3.5801,3.5893,3.5901,3.5932,3.6105,3.6225,3.6247,3.6294,3.6272,3.6318,3.6376,3.6384,3.6613,3.657,3.6599,3.6653,3.6882,3.6889,3.6896,3.6898,3.6909,3.6918,0,0,0,0,0,0,3.5814,3.5852,3.5899,3.6005,3.6044,3.6222,3.6194,3.621,3.6268,3.6267,3.6373,3.6387,3.6429,3.6558,3.6584,3.6634,3.6565,3.6885,3.6891,3.6897,3.6902,3.691,3.6918,0,0,0,0,0,3.5824,3.5855,3.612,3.6004,3.6038,3.6123,3.6191,3.6204,3.6249,3.6339,3.6354,3.628,3.6429,3.6454,3.6573,3.6621,3.6547,3.6557,3.6889,3.6894,3.6898,3.6906,0,0,0,0,0,0,3.5832,3.5867,3.6127,3.614,3.5973,3.6114,3.6137,3.6198,3.6318,3.6334,3.6248,3.6247,3.643,3.6449,3.6469,3.6614,3.6533,3.6542,3.6548,3.6893,3.6897,3.69,0,0,0,0,0,0,3.585,3.5877,3.6134,3.6092,3.6099,3.6105,3.6126,3.6234,3.6319,3.6221,3.6223,3.6246,3.6401,3.6447,3.6462,3.6629,3.6522,3.6531,3.6537,3.6541,3.6896,3.6899,0,0,0,0,0,0,3.5862,3.5885,3.6089,3.6095,3.6101,3.624,3.6201,3.6375,3.6284,3.6215,3.6277,3.6274,3.6398,3.6414,3.6457,3.6618,3.6626,3.6522,3.6528,3.6533,3.6536,0,0,0,0,0,0,0,3.5872,3.571,3.6056,3.6097,3.6103,3.6251,3.6255,3.6258,3.6284,3.6281,3.6278,3.6276,3.6469,3.6479,3.6489,3.6609,0,0,3.6521,3.6526,0,0,0,0,0,0,0,0,3.5701,3.5708,3.6056,3.6059,3.6061,3.6252,3.6255,3.6257,3.6283,3.6281,3.6279,3.6277,3.6472,3.648,3.6488,0,0,0,0,0,0,0,0,0,0,0,0,0,0,0,3.6057,3.6059,0,3.6252,3.6254,3.6257,3.6283,3.6281,3.6279,3.6277,3.6474,3.6481,3.6488,0,0,0,0,0,0,0,0,0,0,0,0,0,0,0,0,0,0,0,0,0,0,0,0,0,0,0,0,0,0,0,0,0,0,0,0,0,0,0,0,0,0,0,0,0,0,0,0,0,0,0,0,0,0,0,0,0,0,0,0,0,0,0,0,0,0,0,0,0]}],[{"header":{"parameterUnit":"kt","parameterCategory":2,"dx":1,"dy":1,"la1":30.253999710083008,"la2":30.299108505249023,"lo1":-89.0895004272461,"lo2":-89.04439544677734,"nx":28,"ny":28,"refTime":"2022-10-19T09:00:00:Z","depth":0,"parameterNumber":2,"parameterNumberName":"V-component_of_WINDS"},"data":[4.2351,4.2347,4.2338,4.2329,4.2319,4.2311,4.2305,4.2295,4.2286,4.2274,4.2265,4.2254,4.224,4.2226,4.2215,4.221,4.2206,4.2211,4.2204,4.2191,4.2188,4.2185,4.2186,4.2211,4.2211,4.222,4.222,4.222,4.2341,4.2331,4.2324,4.2311,4.2304,4.2293,4.2281,4.2276,4.2269,4.2257,4.2248,4.2236,4.2225,4.2209,4.2196,4.2193,4.2186,4.219,4.2189,4.2187,4.2172,4.2172,4.2195,4.2195,4.2195,4.2195,4.2195,4.2195,4.2319,4.2317,4.2304,4.2296,4.2287,4.2278,4.2274,4.2261,4.2253,4.2241,4.2231,4.2221,4.2207,4.2187,4.2178,4.2169,4.2163,4.2164,4.2164,4.2164,4.2165,4.2151,4.2167,4.2167,4.2167,4.2167,4.2167,0,4.23,4.2292,4.2285,4.2275,4.2268,4.2259,4.2249,4.2247,4.2227,4.2221,4.2211,4.2204,4.219,4.2179,4.2165,4.2155,4.2142,4.214,4.214,4.2144,4.2149,4.2145,4.212,4.2139,4.2139,4.2139,4.2138,4.2138,4.2276,4.2276,4.2257,4.2253,4.2246,4.2239,4.2233,4.2216,4.221,4.2195,4.2193,4.2183,4.2174,4.2159,4.2143,4.2132,4.2125,4.2133,4.2123,4.2127,4.2123,4.2123,4.2122,4.2135,4.2136,4.2136,4.2136,0,4.2263,4.2248,4.2244,4.2226,4.2221,4.2221,4.2205,4.2202,4.219,4.2185,4.2182,4.2163,4.2154,4.2137,4.2122,4.2113,4.2111,4.2105,4.2115,4.2113,4.2117,4.2116,4.2138,4.2139,4.2114,4.2114,4.2115,0,4.2236,4.2236,4.2213,4.2212,4.2211,4.2194,4.2193,4.2183,4.2171,4.2166,4.2149,4.2145,4.2124,4.2117,4.2104,4.2099,4.2096,4.2089,4.2085,4.2089,4.209,4.2085,4.2083,4.2078,4.2078,4.2078,4.2078,0,4.2216,4.2205,4.2203,4.2197,4.2178,4.2177,4.2168,4.2155,4.2149,4.2139,4.2135,4.2125,4.2118,4.211,4.2093,4.2087,4.2087,4.2075,4.2079,4.2079,4.2079,4.2079,4.2103,4.2078,4.2078,4.2078,4.2078,0,4.2191,4.2183,4.2183,4.2165,4.2163,4.2162,4.215,4.2145,4.2132,4.2124,4.2116,4.2102,4.2098,4.2087,4.2079,4.2076,4.207,4.2063,4.2063,4.206,4.2048,4.2062,4.2088,4.2089,4.2059,4.2059,4.2059,0,4.2172,4.2168,4.2153,4.2153,4.2149,4.213,4.2128,4.2117,4.2106,4.21,4.2088,4.2081,4.207,4.2065,4.2064,4.205,4.2055,4.2049,4.2038,4.2038,4.2041,4.2065,4.2073,4.2085,4.2056,4.2057,4.2057,0,4.2154,4.2131,4.2133,4.2125,4.2109,4.2106,4.2104,4.2094,4.2091,4.2081,4.2078,4.2069,4.2059,4.2052,4.204,4.204,4.2051,4.2029,4.2028,4.2032,4.2054,4.2061,4.2063,4.2043,4.2043,4.2043,4.2055,0,4.2117,4.2114,4.2117,4.2103,4.2098,4.2098,4.2081,4.2077,4.2066,4.2055,4.2051,4.2038,4.2027,4.2026,4.2015,4.2021,4.2017,4.2007,4.1993,4.201,4.2013,4.2015,4.199,4.199,4.1989,4.1989,0,0,4.2101,4.2096,4.208,4.2078,4.2073,4.2053,4.2054,4.2047,4.2032,4.2028,4.2021,4.2006,4.1996,4.1993,4.1997,4.1993,4.1992,4.1987,4.2003,4.2004,4.2006,4.201,4.2011,4.1988,4.1988,4.1988,4.1988,0,4.2084,4.2076,4.2078,4.2069,4.2056,4.2044,4.2045,4.2028,4.2021,4.2018,4.2001,4.1997,4.1986,4.1977,4.1971,4.1987,4.1974,4.1986,4.2,4.1999,4.2001,4.2003,4.2008,4.201,4.1987,4.1987,4.1987,0,4.2063,4.2051,4.205,4.2038,4.2029,4.2026,4.2008,4.2006,4.2002,4.1981,4.1978,4.1968,4.1955,4.1955,4.1955,4.1948,4.1959,4.1953,4.1955,4.1955,4.1953,4.1956,4.1958,4.1926,4.1926,4.1926,0,0,4.205,4.2047,4.2029,4.2033,4.2029,4.2011,4.2008,4.1997,4.1986,4.1981,4.1969,4.1958,4.1951,4.1948,4.1941,4.1944,4.1939,4.1947,4.1949,4.1952,4.1952,4.1951,4.1954,4.1926,4.1926,4.1926,0,0,4.2043,4.2022,4.2013,4.2017,4.2007,4.1989,4.1992,4.198,4.1973,4.1971,4.1951,4.1947,4.1947,4.1939,4.1934,4.1936,4.1923,4.1924,4.1941,4.1944,4.1947,4.1949,4.1913,0,0,0,0,0,4.2017,4.2025,4.2017,4.2015,4.2,4.1994,4.1991,4.1976,4.1967,4.1969,4.1957,4.1944,4.1931,4.1927,4.1925,4.193,4.1919,4.192,4.1921,4.1944,4.1948,4.1951,0,0,0,0,0,0,4.2016,4.2013,4.2017,4.2,4.1996,4.1993,4.1975,4.197,4.1966,4.1964,4.1947,4.1943,4.1929,4.1927,4.1925,4.193,4.1913,4.1919,4.192,4.1921,4.1945,4.1948,4.1951,0,0,0,0,0,4.2015,4.2013,4.1993,4.1999,4.1996,4.1977,4.1974,4.1971,4.1967,4.1948,4.1944,4.1955,4.193,4.1927,4.1926,4.1932,4.1914,4.1914,4.192,4.1921,4.1922,4.1947,0,0,0,0,0,0,4.2014,4.2009,4.1992,4.199,4.1995,4.1977,4.1973,4.1971,4.1951,4.1947,4.1955,4.1954,4.193,4.1928,4.1927,4.1933,4.1915,4.1915,4.1914,4.1921,4.1921,4.1922,0,0,0,0,0,0,4.201,4.2008,4.1991,4.1987,4.1984,4.1977,4.1974,4.197,4.1951,4.1959,4.1957,4.1955,4.1933,4.1929,4.1928,4.1923,4.1916,4.1915,4.1915,4.1915,4.1921,4.1922,0,0,0,0,0,0,4.2009,4.2007,4.1987,4.1985,4.1983,4.1964,4.1973,4.1958,4.1948,4.1961,4.1946,4.1946,4.1934,4.1932,4.1929,4.1924,4.1923,4.1916,4.1915,4.1915,4.1915,0,0,0,0,0,0,0,4.2008,4.2024,4.2001,4.1984,4.1982,4.1976,4.1975,4.1975,4.1948,4.1947,4.1946,4.1946,4.1919,4.1918,4.1918,4.1926,0,0,4.1916,4.1916,0,0,0,0,0,0,0,0,4.2024,4.2024,4.2001,4.2001,4.2001,4.1975,4.1975,4.1975,4.1947,4.1947,4.1947,4.1946,4.1919,4.1918,4.1918,0,0,0,0,0,0,0,0,0,0,0,0,0,0,0,4.2001,4.2001,0,4.1975,4.1975,4.1975,4.1947,4.1947,4.1947,4.1946,4.1918,4.1918,4.1918,0,0,0,0,0,0,0,0,0,0,0,0,0,0,0,0,0,0,0,0,0,0,0,0,0,0,0,0,0,0,0,0,0,0,0,0,0,0,0,0,0,0,0,0,0,0,0,0,0,0,0,0,0,0,0,0,0,0,0,0,0,0,0,0,0,0,0,0,0]}]]]